Time,TemperatureF,DewpointF,PressureIn,WindDirection,WindDirectionDegrees,WindSpeedMPH,WindSpeedGustMPH,Humidity,HourlyPrecipIn,Conditions,Clouds,dailyrainin,SoftwareType,DateUTC
2013-02-02 00:03:00,12.0,6.0,-100.00,West,270,12.0,20.0,76,-99.99,,,-99.99,,2013-02-02 05:03:00,
2013-02-02 00:12:00,12.0,5.0,-100.00,WSW,255,9.0,18.0,75,-99.99,,,-99.99,,2013-02-02 05:12:00,
2013-02-02 00:22:00,12.0,5.0,-100.00,WSW,255,9.0,18.0,75,-99.99,,,-99.99,,2013-02-02 05:22:00,
2013-02-02 00:33:00,11.0,6.0,-100.00,West,275,9.0,17.0,79,-99.99,,,-99.99,,2013-02-02 05:33:00,
2013-02-02 00:42:00,11.0,6.0,-100.00,West,275,9.0,17.0,79,-99.99,,,-99.99,,2013-02-02 05:42:00,
2013-02-02 00:52:00,12.0,6.0,-100.00,West,265,9.0,16.0,78,-99.99,,,-99.99,,2013-02-02 05:52:00,
2013-02-02 01:02:00,12.0,7.0,-100.00,West,280,8.0,19.0,79,-99.99,,,-99.99,,2013-02-02 06:02:00,
2013-02-02 01:12:00,12.0,7.0,-100.00,West,280,8.0,19.0,79,-99.99,,,-99.99,,2013-02-02 06:12:00,
2013-02-02 01:22:00,12.0,6.0,-100.00,West,280,7.0,19.0,78,-99.99,,,-99.99,,2013-02-02 06:22:00,
2013-02-02 01:32:00,12.0,6.0,-100.00,West,280,11.0,19.0,78,-99.99,,,-99.99,,2013-02-02 06:32:00,
2013-02-02 01:42:00,12.0,6.0,-100.00,West,280,11.0,19.0,78,-99.99,,,-99.99,,2013-02-02 06:42:00,
2013-02-02 01:52:00,12.0,5.0,-100.00,West,265,9.0,18.0,74,-99.99,,,-99.99,,2013-02-02 06:52:00,
2013-02-02 02:02:00,11.0,7.0,-100.00,West,275,10.0,20.0,81,-99.99,,,-99.99,,2013-02-02 07:02:00,
2013-02-02 02:12:00,11.0,7.0,-100.00,West,275,10.0,20.0,81,-99.99,,,-99.99,,2013-02-02 07:12:00,
2013-02-02 02:21:00,12.0,6.0,-100.00,WNW,285,11.0,26.0,75,-99.99,,,-99.99,,2013-02-02 07:21:00,
2013-02-02 02:32:00,13.0,8.0,-100.00,NW,305,15.0,24.0,80,-99.99,,,-99.99,,2013-02-02 07:32:00,
2013-02-02 02:42:00,13.0,8.0,-100.00,NW,305,15.0,24.0,80,-99.99,,,-99.99,,2013-02-02 07:42:00,
2013-02-02 02:51:00,12.0,8.0,-100.00,WNW,300,14.0,29.0,82,-99.99,,,-99.99,,2013-02-02 07:51:00,
2013-02-02 03:01:00,12.0,6.0,-100.00,NW,305,14.0,24.0,76,-99.99,,,-99.99,,2013-02-02 08:01:00,
2013-02-02 03:11:00,12.0,6.0,-100.00,NW,305,14.0,24.0,76,-99.99,,,-99.99,,2013-02-02 08:11:00,
2013-02-02 03:21:00,12.0,5.0,-100.00,NW,310,16.0,34.0,73,-99.99,,,-99.99,,2013-02-02 08:21:00,
2013-02-02 03:32:00,12.0,5.0,-100.00,NW,310,20.0,26.0,72,-99.99,,,-99.99,,2013-02-02 08:32:00,
2013-02-02 03:42:00,12.0,5.0,-100.00,NW,310,20.0,26.0,72,-99.99,,,-99.99,,2013-02-02 08:42:00,
2013-02-02 03:52:00,12.0,5.0,-100.00,NW,305,14.0,29.0,72,-99.99,,,-99.99,,2013-02-02 08:52:00,
2013-02-02 04:02:00,12.0,4.0,-100.00,West,280,11.0,24.0,70,-99.99,,,-99.99,,2013-02-02 09:02:00,
2013-02-02 04:11:00,12.0,4.0,-100.00,West,280,11.0,24.0,70,-99.99,,,-99.99,,2013-02-02 09:11:00,
2013-02-02 04:22:00,12.0,4.0,-100.00,NW,310,16.0,26.0,70,-99.99,,,-99.99,,2013-02-02 09:22:00,
2013-02-02 04:32:00,12.0,4.0,-100.00,NW,310,19.0,26.0,71,-99.99,,,-99.99,,2013-02-02 09:32:00,
2013-02-02 04:42:00,12.0,4.0,-100.00,NW,310,19.0,26.0,71,-99.99,,,-99.99,,2013-02-02 09:42:00,
2013-02-02 04:52:00,12.0,4.0,-100.00,NW,315,17.0,26.0,71,-99.99,,,-99.99,,2013-02-02 09:52:00,
2013-02-02 05:02:00,12.0,4.0,-100.00,NW,310,18.0,26.0,71,-99.99,,,-99.99,,2013-02-02 10:02:00,
2013-02-02 05:11:00,12.0,4.0,-100.00,NW,310,18.0,26.0,71,-99.99,,,-99.99,,2013-02-02 10:11:00,
2013-02-02 05:21:00,12.0,5.0,-100.00,NW,310,14.0,24.0,72,-99.99,,,-99.99,,2013-02-02 10:21:00,
2013-02-02 05:32:00,12.0,3.0,-100.00,NW,305,14.0,24.0,68,-99.99,,,-99.99,,2013-02-02 10:32:00,
2013-02-02 05:42:00,12.0,3.0,-100.00,NW,305,14.0,24.0,68,-99.99,,,-99.99,,2013-02-02 10:42:00,
2013-02-02 05:52:00,12.0,4.0,-100.00,NW,315,11.0,24.0,69,-99.99,,,-99.99,,2013-02-02 10:52:00,
2013-02-02 06:02:00,12.0,3.0,-100.00,NW,305,13.0,22.0,68,-99.99,,,-99.99,,2013-02-02 11:02:00,
2013-02-02 06:11:00,12.0,3.0,-100.00,NW,305,13.0,22.0,68,-99.99,,,-99.99,,2013-02-02 11:11:00,
2013-02-02 06:22:00,12.0,4.0,-100.00,NW,315,14.0,21.0,69,-99.99,,,-99.99,,2013-02-02 11:22:00,
2013-02-02 06:32:00,12.0,4.0,-100.00,NW,315,17.0,24.0,68,-99.99,,,-99.99,,2013-02-02 11:32:00,
2013-02-02 06:42:00,12.0,4.0,-100.00,NW,315,17.0,24.0,68,-99.99,,,-99.99,,2013-02-02 11:42:00,
2013-02-02 06:52:00,12.0,3.0,-100.00,NW,320,18.0,21.0,66,-99.99,,,-99.99,,2013-02-02 11:52:00,
2013-02-02 07:02:00,12.0,4.0,-100.00,WNW,290,11.0,17.0,67,-99.99,,,-99.99,,2013-02-02 12:02:00,
2013-02-02 07:11:00,12.0,4.0,-100.00,WNW,290,11.0,17.0,67,-99.99,,,-99.99,,2013-02-02 12:11:00,
2013-02-02 07:22:00,12.0,4.0,-100.00,NW,315,14.0,20.0,68,-99.99,,,-99.99,,2013-02-02 12:22:00,
2013-02-02 07:32:00,12.0,2.0,-100.00,NW,320,11.0,21.0,63,-99.99,,,-99.99,,2013-02-02 12:32:00,
2013-02-02 07:42:00,12.0,2.0,-100.00,NW,320,11.0,21.0,63,-99.99,,,-99.99,,2013-02-02 12:42:00,
2013-02-02 07:52:00,12.0,4.0,-100.00,NW,320,11.0,18.0,68,-99.99,,,-99.99,,2013-02-02 12:52:00,
2013-02-02 08:03:00,13.0,3.0,-100.00,NNW,330,10.0,18.0,66,-99.99,,,-99.99,,2013-02-02 13:03:00,
2013-02-02 08:11:00,13.0,3.0,-100.00,NNW,330,10.0,18.0,66,-99.99,,,-99.99,,2013-02-02 13:11:00,
2013-02-02 08:22:00,12.0,5.0,-100.00,NW,315,13.0,17.0,73,-99.99,,,-99.99,,2013-02-02 13:22:00,
2013-02-02 08:33:00,13.0,5.0,-100.00,NNW,335,11.0,15.0,71,-99.99,,,-99.99,,2013-02-02 13:33:00,
2013-02-02 08:42:00,13.0,5.0,-100.00,NNW,335,11.0,15.0,71,-99.99,,,-99.99,,2013-02-02 13:42:00,
2013-02-02 08:52:00,13.0,4.0,-100.00,North,5,10.0,13.0,68,-99.99,,,-99.99,,2013-02-02 13:52:00,
2013-02-02 09:03:00,13.0,5.0,-100.00,North,0,10.0,14.0,70,-99.99,,,-99.99,,2013-02-02 14:03:00,
2013-02-02 09:12:00,13.0,5.0,-100.00,North,0,10.0,14.0,70,-99.99,,,-99.99,,2013-02-02 14:12:00,
2013-02-02 09:22:00,13.0,5.0,-100.00,NNW,340,10.0,16.0,69,-99.99,,,-99.99,,2013-02-02 14:22:00,
2013-02-02 09:33:00,13.0,5.0,-100.00,North,10,8.0,11.0,69,-99.99,,,-99.99,,2013-02-02 14:33:00,
2013-02-02 09:42:00,13.0,5.0,-100.00,North,10,8.0,11.0,69,-99.99,,,-99.99,,2013-02-02 14:42:00,
2013-02-02 09:52:00,13.0,5.0,-100.00,NNW,340,15.0,21.0,69,-99.99,,,-99.99,,2013-02-02 14:52:00,
2013-02-02 10:03:00,13.0,5.0,-100.00,NNW,330,10.0,18.0,69,-99.99,,,-99.99,,2013-02-02 15:03:00,
2013-02-02 10:13:00,13.0,5.0,-100.00,NNW,330,10.0,18.0,69,-99.99,,,-99.99,,2013-02-02 15:13:00,
2013-02-02 10:22:00,13.0,6.0,-100.00,NNW,335,12.0,18.0,73,-99.99,,,-99.99,,2013-02-02 15:22:00,
2013-02-02 10:33:00,14.0,8.0,-100.00,NNW,340,14.0,17.0,77,-99.99,,,-99.99,,2013-02-02 15:33:00,
2013-02-02 10:42:00,14.0,8.0,-100.00,NNW,340,14.0,17.0,77,-99.99,,,-99.99,,2013-02-02 15:42:00,
2013-02-02 10:52:00,13.0,9.0,-100.00,NNE,20,14.0,21.0,84,-99.99,,,-99.99,,2013-02-02 15:52:00,
2013-02-02 11:03:00,13.0,8.0,-100.00,North,5,15.0,21.0,81,-99.99,,,-99.99,,2013-02-02 16:03:00,
2013-02-02 11:12:00,13.0,8.0,-100.00,North,5,15.0,21.0,81,-99.99,,,-99.99,,2013-02-02 16:12:00,
2013-02-02 11:23:00,13.0,8.0,-100.00,NNE,25,11.0,17.0,81,-99.99,,,-99.99,,2013-02-02 16:23:00,
2013-02-02 11:32:00,13.0,8.0,-100.00,NNE,20,9.0,11.0,82,-99.99,,,-99.99,,2013-02-02 16:32:00,
2013-02-02 11:42:00,13.0,8.0,-100.00,NNE,20,9.0,11.0,82,-99.99,,,-99.99,,2013-02-02 16:42:00,
2013-02-02 11:52:00,14.0,8.0,-100.00,North,355,11.0,14.0,78,-99.99,,,-99.99,,2013-02-02 16:52:00,
2013-02-02 12:03:00,14.0,8.0,-100.00,North,355,11.0,14.0,78,-99.99,,,-99.99,,2013-02-02 17:03:00,
2013-02-02 12:11:00,14.0,8.0,-100.00,North,355,11.0,14.0,78,-99.99,,,-99.99,,2013-02-02 17:11:00,
2013-02-02 12:23:00,15.0,8.0,-100.00,North,350,10.0,14.0,72,-99.99,,,-99.99,,2013-02-02 17:23:00,
2013-02-02 12:33:00,15.0,8.0,-100.00,North,5,10.0,13.0,72,-99.99,,,-99.99,,2013-02-02 17:33:00,
2013-02-02 12:42:00,15.0,8.0,-100.00,North,5,10.0,13.0,72,-99.99,,,-99.99,,2013-02-02 17:42:00,
2013-02-02 12:52:00,14.0,7.0,-100.00,NNE,25,10.0,16.0,73,-99.99,,,-99.99,,2013-02-02 17:52:00,
2013-02-02 13:03:00,14.0,7.0,-100.00,NNE,25,10.0,16.0,73,-99.99,,,-99.99,,2013-02-02 18:03:00,
2013-02-02 13:12:00,14.0,7.0,-100.00,NNE,25,10.0,16.0,73,-99.99,,,-99.99,,2013-02-02 18:12:00,
2013-02-02 13:22:00,15.0,6.0,-100.00,NNE,25,8.0,14.0,67,-99.99,,,-99.99,,2013-02-02 18:22:00,
2013-02-02 13:32:00,15.0,5.0,-100.00,North,10,12.0,15.0,66,-99.99,,,-99.99,,2013-02-02 18:32:00,
2013-02-02 13:42:00,15.0,5.0,-100.00,North,10,12.0,15.0,66,-99.99,,,-99.99,,2013-02-02 18:42:00,
2013-02-02 13:52:00,15.0,4.0,-100.00,NNE,15,9.0,13.0,62,-99.99,,,-99.99,,2013-02-02 18:52:00,
2013-02-02 14:02:00,16.0,4.0,-100.00,North,10,9.0,13.0,58,-99.99,,,-99.99,,2013-02-02 19:02:00,
2013-02-02 14:12:00,16.0,4.0,-100.00,North,10,9.0,13.0,58,-99.99,,,-99.99,,2013-02-02 19:12:00,
2013-02-02 14:22:00,15.0,1.0,-100.00,NNE,15,14.0,16.0,52,-99.99,,,-99.99,,2013-02-02 19:22:00,
2013-02-02 14:32:00,15.0,-1.0,-100.00,NNE,20,13.0,16.0,47,-99.99,,,-99.99,,2013-02-02 19:32:00,
2013-02-02 14:42:00,15.0,-1.0,-100.00,NNE,20,13.0,16.0,47,-99.99,,,-99.99,,2013-02-02 19:42:00,
2013-02-02 14:52:00,15.0,1.0,-100.00,NNE,15,14.0,17.0,53,-99.99,,,-99.99,,2013-02-02 19:52:00,
2013-02-02 15:02:00,15.0,2.0,-100.00,NNE,15,14.0,17.0,55,-99.99,,,-99.99,,2013-02-02 20:02:00,
2013-02-02 15:12:00,15.0,2.0,-100.00,NNE,15,14.0,17.0,55,-99.99,,,-99.99,,2013-02-02 20:12:00,
2013-02-02 15:22:00,15.0,2.0,-100.00,North,0,16.0,19.0,55,-99.99,,,-99.99,,2013-02-02 20:22:00,
2013-02-02 15:32:00,15.0,4.0,-100.00,North,10,18.0,24.0,61,-99.99,,,-99.99,,2013-02-02 20:32:00,
2013-02-02 15:42:00,15.0,4.0,-100.00,North,10,18.0,24.0,61,-99.99,,,-99.99,,2013-02-02 20:42:00,
2013-02-02 15:52:00,14.0,3.0,-100.00,NNE,15,9.0,19.0,61,-99.99,,,-99.99,,2013-02-02 20:52:00,
2013-02-02 16:02:00,14.0,2.0,-100.00,NNE,20,6.0,11.0,58,-99.99,,,-99.99,,2013-02-02 21:02:00,
2013-02-02 16:11:00,14.0,2.0,-100.00,NNE,20,6.0,11.0,58,-99.99,,,-99.99,,2013-02-02 21:11:00,
2013-02-02 16:22:00,14.0,4.0,-100.00,NNE,25,8.0,13.0,62,-99.99,,,-99.99,,2013-02-02 21:22:00,
2013-02-02 16:32:00,15.0,2.0,-100.00,NNE,25,9.0,16.0,57,-99.99,,,-99.99,,2013-02-02 21:32:00,
2013-02-02 16:42:00,15.0,2.0,-100.00,NNE,25,9.0,16.0,57,-99.99,,,-99.99,,2013-02-02 21:42:00,
2013-02-02 16:52:00,15.0,3.0,-100.00,NE,45,4.0,14.0,58,-99.99,,,-99.99,,2013-02-02 21:52:00,
2013-02-02 17:03:00,14.0,2.0,-100.00,NNE,20,7.0,11.0,58,-99.99,,,-99.99,,2013-02-02 22:03:00,
2013-02-02 17:12:00,14.0,2.0,-100.00,NNE,20,7.0,11.0,58,-99.99,,,-99.99,,2013-02-02 22:12:00,
2013-02-02 17:21:00,15.0,3.0,-100.00,ENE,60,5.0,10.0,59,-99.99,,,-99.99,,2013-02-02 22:21:00,
2013-02-02 17:32:00,15.0,3.0,-100.00,NNE,30,5.0,10.0,59,-99.99,,,-99.99,,2013-02-02 22:32:00,
2013-02-02 17:42:00,15.0,3.0,-100.00,NNE,30,5.0,10.0,59,-99.99,,,-99.99,,2013-02-02 22:42:00,
2013-02-02 17:52:00,14.0,3.0,-100.00,NE,55,1.0,10.0,60,-99.99,,,-99.99,,2013-02-02 22:52:00,
2013-02-02 18:02:00,14.0,3.0,-100.00,NE,55,1.0,10.0,60,-99.99,,,-99.99,,2013-02-02 23:02:00,
2013-02-02 18:11:00,14.0,3.0,-100.00,NE,55,1.0,10.0,60,-99.99,,,-99.99,,2013-02-02 23:11:00,
2013-02-02 18:22:00,15.0,2.0,-100.00,NNW,340,6.0,16.0,57,-99.99,,,-99.99,,2013-02-02 23:22:00,
2013-02-02 18:32:00,15.0,2.0,-100.00,NNE,20,9.0,14.0,56,-99.99,,,-99.99,,2013-02-02 23:32:00,
2013-02-02 18:42:00,15.0,2.0,-100.00,NNE,20,9.0,14.0,56,-99.99,,,-99.99,,2013-02-02 23:42:00,
2013-02-02 18:52:00,15.0,2.0,-100.00,NNE,20,7.0,14.0,58,-99.99,,,-99.99,,2013-02-02 23:52:00,
2013-02-02 19:02:00,14.0,3.0,-100.00,NNE,20,4.0,6.0,60,-99.99,,,-99.99,,2013-02-03 00:02:00,
2013-02-02 19:11:00,14.0,3.0,-100.00,NNE,20,4.0,6.0,60,-99.99,,,-99.99,,2013-02-03 00:11:00,
2013-02-02 19:22:00,12.0,5.0,-100.00,South,190,1.0,5.0,72,-99.99,,,-99.99,,2013-02-03 00:22:00,
2013-02-02 19:32:00,12.0,5.0,-100.00,South,175,3.0,4.0,75,-99.99,,,-99.99,,2013-02-03 00:32:00,
2013-02-02 19:42:00,12.0,5.0,-100.00,South,175,3.0,4.0,75,-99.99,,,-99.99,,2013-02-03 00:42:00,
2013-02-02 19:52:00,12.0,6.0,-100.00,South,175,2.0,4.0,77,-99.99,,,-99.99,,2013-02-03 00:52:00,
2013-02-02 20:02:00,12.0,6.0,-100.00,South,170,4.0,6.0,77,-99.99,,,-99.99,,2013-02-03 01:02:00,
2013-02-02 20:11:00,12.0,6.0,-100.00,South,170,4.0,6.0,77,-99.99,,,-99.99,,2013-02-03 01:11:00,
2013-02-02 20:21:00,12.0,6.0,-100.00,SSW,205,4.0,6.0,77,-99.99,,,-99.99,,2013-02-03 01:21:00,
2013-02-02 20:32:00,12.0,6.0,-100.00,South,190,4.0,7.0,77,-99.99,,,-99.99,,2013-02-03 01:32:00,
2013-02-02 20:42:00,12.0,6.0,-100.00,South,190,4.0,7.0,77,-99.99,,,-99.99,,2013-02-03 01:42:00,
2013-02-02 20:52:00,12.0,6.0,-100.00,South,175,3.0,8.0,78,-99.99,,,-99.99,,2013-02-03 01:52:00,
2013-02-02 21:01:00,12.0,6.0,-100.00,South,180,4.0,9.0,76,-99.99,,,-99.99,,2013-02-03 02:01:00,
2013-02-02 21:11:00,12.0,6.0,-100.00,South,180,4.0,9.0,76,-99.99,,,-99.99,,2013-02-03 02:11:00,
2013-02-02 21:21:00,11.0,5.0,-100.00,South,180,3.0,6.0,75,-99.99,,,-99.99,,2013-02-03 02:21:00,
2013-02-02 21:32:00,12.0,5.0,-100.00,South,180,3.0,6.0,75,-99.99,,,-99.99,,2013-02-03 02:32:00,
2013-02-02 21:42:00,12.0,5.0,-100.00,South,180,3.0,6.0,75,-99.99,,,-99.99,,2013-02-03 02:42:00,
2013-02-02 21:52:00,11.0,5.0,-100.00,SSE,155,3.0,6.0,76,-99.99,,,-99.99,,2013-02-03 02:52:00,
2013-02-02 22:02:00,12.0,6.0,-100.00,South,180,4.0,7.0,77,-99.99,,,-99.99,,2013-02-03 03:02:00,
2013-02-02 22:11:00,12.0,6.0,-100.00,South,180,4.0,7.0,77,-99.99,,,-99.99,,2013-02-03 03:11:00,
2013-02-02 22:22:00,11.0,6.0,-100.00,SSW,200,3.0,6.0,77,-99.99,,,-99.99,,2013-02-03 03:22:00,
2013-02-02 22:32:00,11.0,5.0,-100.00,SSW,195,4.0,6.0,76,-99.99,,,-99.99,,2013-02-03 03:32:00,
2013-02-02 22:42:00,11.0,5.0,-100.00,SSW,195,4.0,6.0,76,-99.99,,,-99.99,,2013-02-03 03:42:00,
2013-02-02 22:51:00,11.0,4.0,-100.00,SSW,195,4.0,9.0,74,-99.99,,,-99.99,,2013-02-03 03:51:00,
2013-02-02 23:01:00,11.0,5.0,-100.00,South,170,3.0,7.0,75,-99.99,,,-99.99,,2013-02-03 04:01:00,
2013-02-02 23:11:00,11.0,5.0,-100.00,South,170,3.0,7.0,75,-99.99,,,-99.99,,2013-02-03 04:11:00,
2013-02-02 23:22:00,11.0,5.0,-100.00,South,180,1.0,6.0,76,-99.99,,,-99.99,,2013-02-03 04:22:00,
2013-02-02 23:32:00,11.0,5.0,-100.00,South,190,2.0,5.0,77,-99.99,,,-99.99,,2013-02-03 04:32:00,
2013-02-02 23:42:00,11.0,5.0,-100.00,South,190,2.0,5.0,77,-99.99,,,-99.99,,2013-02-03 04:42:00,
2013-02-02 23:52:00,11.0,5.0,-100.00,South,180,4.0,7.0,77,-99.99,,,-99.99,,2013-02-03 04:52:00,